• In Uzbekistan
  • List of Countries
  • For 7 days
  • Water Temperature
  • Satellite Maps
  • Weather Map
  • Weather Widgets
  • user-avatar
    Login

    Hourly Weather Konstantyna

    Today, 8 December, Thursday

    Time Temperature Precipitation Wind Pressure Humidity
    00:00 +9°C° 0 mm 0 mps 715 mmHg 97%
    01:00 +9°C° 0.1 mm 0 mps 715 mmHg 97%
    02:00 +9°C° 0.1 mm 0 mps 715 mmHg 97%
    03:00 +9°C° 0.1 mm 0 mps 715 mmHg 97%
    04:00 +9°C° 0.1 mm 0 mps 715 mmHg 97%
    05:00 +9°C° 0.1 mm 0 mps 715 mmHg 97%
    06:00 +10°C° 0.1 mm 1 mps 716 mmHg 97%
    07:00 +11°C° 0 mm 1 mps 716 mmHg 93%
    08:00 +12°C° 0 mm 1 mps 717 mmHg 89%
    09:00 +14°C° 0 mm 1 mps 717 mmHg 86%
    10:00 +14°C° 0 mm 1 mps 717 mmHg 81%
    11:00 +15°C° 0 mm 1 mps 717 mmHg 76%
    12:00 +16°C° 0 mm 1 mps 717 mmHg 72%
    13:00 +16°C° 0 mm 1 mps 717 mmHg 72%
    14:00 +16°C° 0 mm 2 mps 717 mmHg 72%
    15:00 +16°C° 0 mm 2 mps 717 mmHg 72%
    16:00 +15°C° 0 mm 1 mps 717 mmHg 78%
    17:00 +13°C° 0 mm 1 mps 717 mmHg 84%
    18:00 +12°C° 0 mm 1 mps 717 mmHg 90%
    19:00 +11°C° 0 mm 1 mps 717 mmHg 92%
    20:00 +11°C° 0 mm 1 mps 718 mmHg 94%
    21:00 +10°C° 0 mm 1 mps 718 mmHg 95%
    22:00 +10°C° 0 mm 1 mps 718 mmHg 95%
    23:00 +9°C° 0 mm 1 mps 718 mmHg 96%

    Tomorrow, 9 December, Friday

    Time Temperature Precipitation Wind Pressure Humidity
    00:00 +9°C° 0 mm 1 mps 718 mmHg 96%
    01:00 +9°C° 0 mm 1 mps 718 mmHg 96%
    02:00 +9°C° 0 mm 1 mps 718 mmHg 96%
    03:00 +9°C° 0 mm 1 mps 718 mmHg 96%
    04:00 +9°C° 0 mm 1 mps 718 mmHg 96%
    05:00 +9°C° 0 mm 1 mps 718 mmHg 96%
    06:00 +9°C° 0 mm 1 mps 718 mmHg 96%
    07:00 +11°C° 0 mm 1 mps 718 mmHg 89%
    08:00 +13°C° 0 mm 1 mps 719 mmHg 83%
    09:00 +13°C° 0 mm 0 mps 719 mmHg 76%
    10:00 +15°C° 0 mm 1 mps 719 mmHg 71%
    11:00 +16°C° 0 mm 1 mps 719 mmHg 66%
    12:00 +18°C° 0 mm 1 mps 719 mmHg 61%
    13:00 +18°C° 0 mm 1 mps 719 mmHg 64%
    14:00 +17°C° 0 mm 2 mps 719 mmHg 67%
    15:00 +16°C° 0 mm 2 mps 718 mmHg 70%
    16:00 +15°C° 0 mm 1 mps 718 mmHg 77%
    17:00 +13°C° 0 mm 1 mps 718 mmHg 84%
    18:00 +12°C° 0 mm 1 mps 718 mmHg 92%
    19:00 +11°C° 0 mm 1 mps 718 mmHg 93%
    20:00 +11°C° 0 mm 1 mps 718 mmHg 94%
    21:00 +10°C° 0 mm 1 mps 718 mmHg 96%
    22:00 +10°C° 0 mm 1 mps 718 mmHg 96%
    23:00 +10°C° 0 mm 1 mps 718 mmHg 96%

    Day after tomorrow, 10 December, Saturday

    Time Temperature Precipitation Wind Pressure Humidity
    00:00 +9°C° 0 mm 0 mps 718 mmHg 96%
    01:00 +8°C° 0 mm 0 mps 717 mmHg 96%
    02:00 +8°C° 0 mm 0 mps 717 mmHg 96%
    03:00 +8°C° 0 mm 0 mps 717 mmHg 96%
    04:00 +8°C° 0 mm 0 mps 717 mmHg 96%
    05:00 +8°C° 0 mm 0 mps 717 mmHg 96%
    06:00 +7°C° 0 mm 0 mps 717 mmHg 96%
    07:00 +9°C° 0 mm 0 mps 717 mmHg 90%
    08:00 +11°C° 0 mm 0 mps 718 mmHg 84%
    09:00 +13°C° 0 mm 0 mps 718 mmHg 78%
    10:00 +15°C° 0 mm 1 mps 718 mmHg 73%
    11:00 +16°C° 0 mm 1 mps 718 mmHg 67%
    12:00 +18°C° 0 mm 1 mps 718 mmHg 62%
    13:00 +18°C° 0 mm 1 mps 718 mmHg 63%
    14:00 +18°C° 0 mm 1 mps 717 mmHg 64%
    15:00 +16°C° 0 mm 1 mps 717 mmHg 65%
    16:00 +14°C° 0 mm 1 mps 717 mmHg 74%
    17:00 +12°C° 0 mm 1 mps 717 mmHg 83%
    18:00 +10°C° 0 mm 1 mps 716 mmHg 92%
    19:00 +10°C° 0 mm 1 mps 716 mmHg 93%
    20:00 +9°C° 0 mm 1 mps 716 mmHg 93%
    21:00 +9°C° 0 mm 1 mps 716 mmHg 94%
    22:00 +9°C° 0 mm 1 mps 716 mmHg 94%
    23:00 +8°C° 0 mm 1 mps 716 mmHg 94%

    11 December, Sunday

    Time Temperature Precipitation Wind Pressure Humidity
    00:00 +8°C° 0 mm 1 mps 716 mmHg 95%
    01:00 +8°C° 0 mm 1 mps 716 mmHg 95%
    02:00 +8°C° 0 mm 1 mps 715 mmHg 95%
    03:00 +8°C° 0 mm 1 mps 715 mmHg 95%
    04:00 +8°C° 0 mm 1 mps 715 mmHg 95%
    05:00 +8°C° 0 mm 1 mps 715 mmHg 95%
    06:00 +7°C° 0 mm 1 mps 715 mmHg 95%
    07:00 +10°C° 0 mm 1 mps 715 mmHg 87%
    08:00 +12°C° 0 mm 1 mps 716 mmHg 80%
    09:00 +13°C° 0 mm 0 mps 716 mmHg 72%
    10:00 +15°C° 0 mm 1 mps 716 mmHg 65%
    11:00 +16°C° 0 mm 1 mps 716 mmHg 58%
    12:00 +19°C° 0 mm 1 mps 716 mmHg 51%
    13:00 +18°C° 0 mm 1 mps 715 mmHg 52%
    14:00 +18°C° 0 mm 1 mps 715 mmHg 53%
    15:00 +18°C° 0 mm 1 mps 714 mmHg 55%
    16:00 +14°C° 0 mm 1 mps 714 mmHg 65%
    17:00 +11°C° 0 mm 1 mps 714 mmHg 76%
    18:00 +8°C° 0 mm 0 mps 714 mmHg 86%
    19:00 +8°C° 0 mm 0 mps 714 mmHg 88%
    20:00 +7°C° 0 mm 0 mps 714 mmHg 89%
    21:00 +7°C° 0 mm 0 mps 714 mmHg 91%
    22:00 +7°C° 0 mm 0 mps 714 mmHg 91%
    23:00 +8°C° 0 mm 1 mps 714 mmHg 91%

    12 December, Monday

    Time Temperature Precipitation Wind Pressure Humidity
    00:00 +8°C° 0 mm 1 mps 714 mmHg 91%
    01:00 +7°C° 0 mm 1 mps 713 mmHg 91%
    02:00 +7°C° 0 mm 1 mps 713 mmHg 91%
    03:00 +7°C° 0 mm 1 mps 713 mmHg 91%
    04:00 +7°C° 0 mm 1 mps 713 mmHg 91%
    05:00 +7°C° 0 mm 1 mps 713 mmHg 91%
    06:00 +7°C° 0 mm 1 mps 713 mmHg 91%
    07:00 +9°C° 0 mm 1 mps 713 mmHg 82%
    08:00 +11°C° 0 mm 1 mps 714 mmHg 73%
    09:00 +13°C° 0 mm 1 mps 715 mmHg 65%
    10:00 +15°C° 0 mm 1 mps 714 mmHg 58%
    11:00 +16°C° 0 mm 1 mps 714 mmHg 52%
    12:00 +18°C° 0 mm 1 mps 714 mmHg 45%
    13:00 +18°C° 0 mm 1 mps 714 mmHg 48%
    14:00 +16°C° 0 mm 1 mps 714 mmHg 50%
    15:00 +16°C° 0 mm 1 mps 713 mmHg 53%
    16:00 +14°C° 0 mm 1 mps 713 mmHg 64%
    17:00 +11°C° 0 mm 1 mps 713 mmHg 75%
    18:00 +9°C° 0 mm 1 mps 713 mmHg 86%
    19:00 +8°C° 0 mm 1 mps 713 mmHg 88%
    20:00 +8°C° 0 mm 1 mps 713 mmHg 89%
    21:00 +8°C° 0 mm 1 mps 713 mmHg 91%
    22:00 +8°C° 0 mm 1 mps 713 mmHg 91%
    23:00 +7°C° 0 mm 1 mps 713 mmHg 91%

    13 December, Tuesday

    Time Temperature Precipitation Wind Pressure Humidity
    00:00 +7°C° 0 mm 1 mps 713 mmHg 90%
    01:00 +7°C° 0 mm 1 mps 713 mmHg 90%
    02:00 +7°C° 0 mm 1 mps 713 mmHg 90%
    03:00 +7°C° 0 mm 1 mps 713 mmHg 90%
    04:00 +6°C° 0 mm 1 mps 713 mmHg 89%
    05:00 +6°C° 0 mm 1 mps 713 mmHg 89%
    06:00 +6°C° 0 mm 1 mps 713 mmHg 89%
    07:00 +8°C° 0 mm 1 mps 714 mmHg 79%
    08:00 +11°C° 0 mm 1 mps 714 mmHg 69%
    09:00 +13°C° 0 mm 1 mps 715 mmHg 60%
    10:00 +15°C° 0 mm 1 mps 715 mmHg 54%
    11:00 +16°C° 0 mm 1 mps 715 mmHg 48%
    12:00 +18°C° 0 mm 1 mps 715 mmHg 43%
    13:00 +18°C° 0 mm 1 mps 714 mmHg 45%
    14:00 +18°C° 0 mm 1 mps 714 mmHg 47%
    15:00 +16°C° 0 mm 1 mps 714 mmHg 49%
    16:00 +14°C° 0 mm 1 mps 714 mmHg 60%
    17:00 +11°C° 0 mm 1 mps 714 mmHg 72%
    18:00 +8°C° 0 mm 1 mps 713 mmHg 83%
    19:00 +8°C° 0 mm 1 mps 713 mmHg 85%
    20:00 +7°C° 0 mm 1 mps 714 mmHg 88%
    21:00 +6°C° 0 mm 0 mps 714 mmHg 90%
    22:00 +6°C° 0 mm 0 mps 714 mmHg 90%
    23:00 +6°C° 0 mm 0 mps 713 mmHg 90%
    Show more